Location: Unspecified
(0.0000°N, 0.0000°E)
Time: 06:45:39
(UTC+00:00)

HST - Visible Passes

Search period start: 24 November 2014 00:00
Search period end: 04 December 2014 00:00
Orbit: 545 x 550 km, 28.5° (Epoch: 23 November)

Date Brightness Start Highest point End Pass type
(mag) Time Alt. Az. Time Alt. Az. Time Alt. Az.
29 Nov 3.1 19:19:57 10° S 19:21:51 13° SSE 19:22:07 13° SSE visible
30 Nov 2.7 19:11:29 10° SSW 19:14:23 18° SSE 19:15:03 18° SE visible
01 Dec 2.2 19:03:22 10° SSW 19:06:52 26° SSE 19:08:00 23° SE visible
02 Dec 1.7 18:55:27 10° SW 18:59:20 37° SSE 19:00:58 26° ESE visible
03 Dec 1.1 18:47:40 10° SW 18:51:46 56° SSE 18:53:57 25° E visible
